{"data":{"norad_id":63047,"intl_designator":"2025-034U","name":"STARLINK-32590","alt_names":[],"object_type":"PAYLOAD","status":"ACTIVE","operator":null,"country":"US","launch_date":"2025-02-18","launch_site_code":"AFETR","launch_vehicle":null,"mission":null,"orbit_class":"UNKNOWN","rcs_meters":null,"size_class":null,"mass_kg":null,"dimensions":null,"purposes":["comms"],"wikipedia_slug":null,"has_3d_model":false,"image_url":null,"decayed_at":null,"tle_current":{"epoch":"2026-05-25T00:41:46.436352Z","epoch_age_seconds":75839,"freshness":"FRESH","line1":"1 63047U 25034U   26145.02900968  .00017163  00000+0  59000-3 0  9990","line2":"2 63047  53.1596 263.6117 0001333  86.1062 274.0091 15.30214280 70769","mean_motion":15.3021428,"eccentricity":0.0001333,"inclination_deg":53.1596,"raan_deg":263.6117,"arg_perigee_deg":86.1062,"mean_anomaly_deg":274.0091,"bstar":0.00059,"rev_number":7076,"period_min":94.104467512877,"perigee_km":474.25888609757,"apogee_km":476.08597839221,"semimajor_km":6853.3094322449,"source":"CELESTRAK","updated_at":"2026-05-25T13:38:19.869683Z"}}}